Regional Weather Roundup
Issued by NWS

Home | Current Version | Previous Version | Text Only | Print | Product List | Glossary On
Versions: 1 2 3 4 5 6 7 8 9 10 11 12 13 14 15 16 17 18 19 20 21 22 23 24 25 26 27 28 29 30 31 32 33 34 35 36 37 38 39 40 41 42 43 44 45 46 47 48 49 50
000
ASUS46 KSEW 011010
RWRWA

WASHINGTON REGIONAL WEATHER ROUNDUP
NATIONAL WEATHER SERVICE SEATTLE WA
300 AM PDT FRI AUG 01 2014

NOTE:"FAIR" INDICATES FEW OR NO CLOUDS BELOW 12,000 FEET WITH NO
SIGNIFICANT WEATHER AND/OR OBSTRUCTIONS TO VISIBILITY.

WAZ505-507>509-011100-
SEATTLE, TACOMA, EVERETT, AND VICINITY

CITY           SKY/WX    TMP DP  RH WIND       PRES   REMARKS
EVERETT        PTCLDY    63  46  54 N5        30.05S
BOEING FIELD   MOCLDY    68  49  50 NW3       30.03S
RENTON         CLOUDY    69  51  52 NW7       30.02F
SEATAC AIRPORT CLOUDY    65  49  56 N5        30.05S
JBLM-MCCHORD   CLOUDY    59  51  75 S3        30.04S
PUYALLUP       FAIR      57  55  94 CALM      30.05S
JBLM-FT LEWIS  CLOUDY    62  49  63 CALM      30.04R
TACOMA NARROWS CLOUDY    64  48  56 CALM      30.04S
$$

WAZ001-503-506-510-514-515-011100-
NORTH INTERIOR

CITY           SKY/WX    TMP DP  RH WIND       PRES   REMARKS
BELLINGHAM     CLEAR     62  54  74 S5        30.03S
FRIDAY HARBOR  CLEAR     51  49  92 CALM      30.04S
EASTSOUND      CLEAR     57  54  88 CALM      30.02R
PORT ANGELES   CLEAR     55  50  83 W5        30.05S
NAS WHIDBEY    CLEAR     56  49  77 CALM      30.04S
BURLINGTON     CLEAR     57  52  82 CALM      30.05S
$$

WAZ020-022-039-040-504-511-512-011100-
SOUTHWEST INTERIOR

CITY           SKY/WX    TMP DP  RH WIND       PRES   REMARKS
SHELTON        PTCLDY    58  51  78 W3        30.02S
OLYMPIA        CLOUDY    57  50  77 S3        30.04S
CHEHALIS       FAIR      59  57  94 CALM      30.03S
KELSO          CLOUDY    64  52  63 CALM      30.05R
VANCOUVER      CLOUDY    70  52  52 CALM      30.02R
SCAPPOOSE, OR  CLOUDY    71  51  49 NW5       30.02R THUNDER
PORTLAND, OR   CLOUDY    71  53  52 NW6       30.03R
$$

WAZ021-516-517-011100-
WASHINGTON COAST

CITY           SKY/WX    TMP DP  RH WIND       PRES   REMARKS
FORKS          MOCLDY    50  48  93 CALM      30.07S
HOQUIAM        CLEAR     55  51  86 CALM      30.06R
ASTORIA, OR    MOCLDY    55  53  93 S3        30.06R
$$

WAZ019-023-024-040-518-519-011100-
CASCADE MOUNTAINS AND COLUMBIA GORGE

CITY           SKY/WX    TMP DP  RH WIND       PRES   REMARKS
STAMPEDE PASS  NOT AVBL
TROUTDALE, OR  LGT RAIN  67  60  78 E6        30.01R
THE DALLES, OR CLOUDY    78  58  49 NW18G25   29.91S
$$

WAZ026-027-041>044-520-521-011100-
EAST SLOPES

CITY           SKY/WX    TMP DP  RH WIND       PRES   REMARKS
OMAK           MOCLDY    70  38  31 N9        29.98S
WENATCHEE      MOCLDY    80  52  37 NW10      29.96R
ELLENSBURG     MOCLDY    64  54  69 E5        30.00R
YAKIMA         CLOUDY    74  53  48 W6        29.95S
$$

WAZ028-034-035-011100-
COLUMBIA BASIN

CITY           SKY/WX    TMP DP  RH WIND       PRES   REMARKS
EPHRATA        MOCLDY    70  46  42 N7        29.93F
MOSES LAKE     MOCLDY    66  48  52 N5        29.94S
PASCO          CLOUDY    69  61  75 CALM      29.90R
HERMISTON, OR  CLOUDY    71  51  49 CALM      29.89S
$$

WAZ036>038-011100-
NORTHEAST WASHINGTON

CITY           SKY/WX    TMP DP  RH WIND       PRES   REMARKS
SPOKANE GEIGER CLOUDY    72  36  26 S7        30.02F
SPOKANE FELTS  CLOUDY    66  40  38 NE3       30.01S
FAIRCHILD AFB  MOCLDY    66  41  40 SW5       30.03S
COEURDALENE,ID MOCLDY    61  46  59 E8        30.03S
DEER PARK      MOCLDY    59  38  45 CALM      30.02S
$$

WAZ029>033-011100-
SOUTHEAST WASHINGTON

CITY           SKY/WX    TMP DP  RH WIND       PRES   REMARKS
PULLMAN        CLOUDY    66  47  50 CALM      30.05F
LEWISTON, ID   CLOUDY    79  45  29 S3        29.97S
WALLA WALLA    CLOUDY    79  44  28 SW3       29.93S
PENDLETON, OR  CLOUDY    74  47  38 S8        29.95R
$$


USA.gov is the U.S. government's official web portal to all federal, state and local government web resources and services.